Find Kosmos-1461

NORAD ID: 14064 Int'l Des: 1983-044 Owner: VMF Country: SU operational
LEOCIRCULAR

Live Position

Loading 3D Globe...

About Kosmos-1461

Description loading...

Upcoming Passes

Passes for default location (London). Set your location on the main map for personalized predictions.

Altitude History

Loading altitude history...

Two-Line Element Set

1 14064U 83044A 26104.91986299 .00014827 00000-0 40078-3 0 9994
2 14064 64.9866 260.5998 0047961 217.6174 142.1606 15.36768319207413
Epoch: Apr 14, 2026 • Age: 13 hours

Current Status

Altitude 492.5 km
Velocity 7.60 km/s
Sub-Earth Point 37.58°N, 85.17°W
Launch Date May 7, 1983
Age 42.9 years
Type other

Technical Details

Classification Payload
Mass 3300.00 kg
Dry Mass 3000.00 kg
Total Mass 3300.00 kg
Length 10.00 m
Diameter 1.30 m
Span 17.00 m
Shape Cyl + 2 Pan
Manufacturer TSSKB/KOMET
Bus Type US-P
Phase Status Exploded
Owner/State VMF/SU

Most Searched